This is the latest recevied weather packets stored in our database for station/object KD8NVS-13. If no packets are shown the sender has not sent any weather packets the latest 1 day(s).
| Time | Temp. | Humidity | Pressure | Rain* | Wind** | Luminosity | Snow |
|---|---|---|---|---|---|---|---|
| 1778006299 | 21.11° C | 60% | 999 hPa | 0 mm | 0.89 m/s, 242° | 82 W/m² | - |
| 1778005996 | 21.11° C | 61% | 999 hPa | 0 mm | 0.89 m/s, 270° | 73 W/m² | - |
| 1778005692 | 21.11° C | 61% | 999 hPa | 0 mm | 1.79 m/s, 265° | 77 W/m² | - |
| 1778005389 | 21.11° C | 60% | 999 hPa | 0 mm | 1.79 m/s, 266° | 83 W/m² | - |
| 1778005086 | 21.11° C | 60% | 999 hPa | 0 mm | 0.89 m/s, 114° | 82 W/m² | - |
| 1778004783 | 21.11° C | 61% | 999 hPa | 0 mm | 0.89 m/s, 257° | 98 W/m² | - |
| 1778004480 | 21.11° C | 62% | 999 hPa | 0 mm | 0.89 m/s, 268° | 94 W/m² | - |
| 1778004176 | 21.11° C | 61% | 999 hPa | 0 mm | 0.45 m/s, 247° | 82 W/m² | - |
| 1778003873 | 21.11° C | 60% | 999 hPa | 0 mm | 1.79 m/s, 216° | 87 W/m² | - |
| 1778003569 | 21.11° C | 60% | 999 hPa | 0 mm | 1.79 m/s, 312° | 77 W/m² | - |
| 1778003266 | 21.11° C | 59% | 999 hPa | 0 mm | 2.24 m/s, 276° | 59 W/m² | - |
| 1778002963 | 21.11° C | 60% | 999.3 hPa | 0 mm | 1.34 m/s, 258° | 61 W/m² | - |
| 1778002659 | 21.11° C | 61% | 999 hPa | 0 mm | 0.89 m/s, 324° | 74 W/m² | - |
| 1778002356 | 21.67° C | 60% | 999 hPa | 0 mm | 0.89 m/s, 153° | 66 W/m² | - |
| 1778002053 | 21.67° C | 60% | 999 hPa | 0 mm | 0.89 m/s, 182° | 56 W/m² | - |
| 1778001750 | 21.67° C | 60% | 999 hPa | 0 mm | 1.34 m/s, 248° | 99 W/m² | - |
| 1778001450 | 21.67° C | 58% | 999.3 hPa | 0 mm | 4.92 m/s, 251° | 75 W/m² | - |
| 1778001147 | 22.78° C | 58% | 999 hPa | 0 mm | 1.79 m/s, 210° | 235 W/m² | - |
| 1778000843 | 22.22° C | 58% | 999 hPa | 0 mm | 4.47 m/s, 257° | 326 W/m² | - |
| 1778000541 | 22.78° C | 57% | 999 hPa | 0 mm | 4.02 m/s, 242° | 325 W/m² | - |
| 1778000236 | 22.78° C | 57% | 999.3 hPa | 0 mm | 1.79 m/s, 222° | 332 W/m² | - |
| 1777999932 | 22.78° C | 58% | 999.3 hPa | 0 mm | 3.13 m/s, 270° | 315 W/m² | - |
| 1777999627 | 22.78° C | 57% | 999 hPa | 0 mm | 2.68 m/s, 289° | 318 W/m² | - |
| 1777999325 | 22.78° C | 58% | 999 hPa | 0 mm | 1.79 m/s, 204° | 318 W/m² | - |
| 1777999023 | 22.22° C | 58% | 999.3 hPa | 0 mm | 5.36 m/s, 289° | 281 W/m² | - |
* Rain latest hour (hover to see other rain measurements)
** Current wind speed in m/s (hover to see current wind gust speed)